Time,TemperatureF,DewpointF,PressureIn,WindDirection,WindDirectionDegrees,WindSpeedMPH,WindSpeedGustMPH,Humidity,HourlyPrecipIn,Conditions,Clouds,dailyrainin,SoftwareType,DateUTC
2013-06-25 00:05:00,79.6,73.6,29.98,ESE,111,1.0,4.0,82,0.00,,,0.00,Wunderground v.1.15,2013-06-25 05:05:00,
2013-06-25 00:15:00,79.4,73.8,29.98,SSW,192,2.0,2.0,83,0.00,,,0.00,Wunderground v.1.15,2013-06-25 05:15:00,
2013-06-25 00:25:00,79.2,73.9,29.98,ESE,117,1.0,1.0,84,0.00,,,0.00,Wunderground v.1.15,2013-06-25 05:25:00,
2013-06-25 00:35:00,79.0,74.1,29.98,SE,129,1.0,2.0,85,0.00,,,0.00,Wunderground v.1.15,2013-06-25 05:35:00,
2013-06-25 00:40:00,79.0,74.1,29.98,NE,34,1.0,1.0,85,0.00,,,0.00,Wunderground v.1.15,2013-06-25 05:40:00,
2013-06-25 00:50:00,79.0,74.1,29.98,East,94,1.0,1.0,85,0.00,,,0.00,Wunderground v.1.15,2013-06-25 05:50:00,
2013-06-25 00:59:00,79.1,74.2,29.98,SE,127,1.0,1.0,85,0.00,,,0.00,Wunderground v.1.15,2013-06-25 05:59:00,
2013-06-25 01:05:00,79.1,74.2,29.98,SE,128,1.0,1.0,85,0.00,,,0.00,Wunderground v.1.15,2013-06-25 06:05:00,
2013-06-25 01:15:00,79.1,74.2,29.99,ESE,121,1.0,2.0,85,0.00,,,0.00,Wunderground v.1.15,2013-06-25 06:15:00,
2013-06-25 01:25:00,79.1,74.2,29.98,ENE,72,1.0,2.0,85,0.00,,,0.00,Wunderground v.1.15,2013-06-25 06:25:00,
2013-06-25 01:35:00,79.1,74.2,29.98,SSW,192,1.0,2.0,85,0.00,,,0.00,Wunderground v.1.15,2013-06-25 06:35:00,
2013-06-25 01:45:00,79.1,74.2,29.98,East,91,1.0,1.0,85,0.00,,,0.00,Wunderground v.1.15,2013-06-25 06:45:00,
2013-06-25 01:55:00,79.1,74.5,29.98,ESE,111,1.0,3.0,86,0.00,,,0.00,Wunderground v.1.15,2013-06-25 06:55:00,
2013-06-25 02:04:00,79.1,74.5,29.98,South,169,1.0,1.0,86,0.00,,,0.00,Wunderground v.1.15,2013-06-25 07:04:00,
2013-06-25 02:10:00,79.0,74.5,29.98,ESE,108,1.0,1.0,86,0.00,,,0.00,Wunderground v.1.15,2013-06-25 07:10:00,
2013-06-25 02:20:00,79.0,74.5,29.98,ESE,120,1.0,1.0,86,0.00,,,0.00,Wunderground v.1.15,2013-06-25 07:20:00,
2013-06-25 02:25:00,79.0,74.5,29.98,SW,224,0.0,1.0,86,0.00,,,0.00,Wunderground v.1.15,2013-06-25 07:25:00,
2013-06-25 02:35:00,79.0,74.8,29.98,East,101,1.0,2.0,87,0.00,,,0.00,Wunderground v.1.15,2013-06-25 07:35:00,
2013-06-25 02:44:00,79.0,74.8,29.98,ESE,108,1.0,2.0,87,0.00,,,0.00,Wunderground v.1.15,2013-06-25 07:44:00,
2013-06-25 02:50:00,78.9,74.7,29.98,SSE,166,1.0,2.0,87,0.00,,,0.00,Wunderground v.1.15,2013-06-25 07:50:00,
2013-06-25 03:00:00,78.8,74.9,29.98,ESE,114,1.0,1.0,88,0.00,,,0.00,Wunderground v.1.15,2013-06-25 08:00:00,
2013-06-25 03:10:00,78.7,74.8,29.98,ESE,114,0.0,0.0,88,0.00,,,0.00,Wunderground v.1.15,2013-06-25 08:10:00,
2013-06-25 03:20:00,78.5,75.0,29.98,NE,51,0.0,0.0,89,0.00,,,0.00,Wunderground v.1.15,2013-06-25 08:20:00,
2013-06-25 03:30:00,78.4,74.9,29.98,SE,131,0.0,0.0,89,0.00,,,0.00,Wunderground v.1.15,2013-06-25 08:30:00,
2013-06-25 03:40:00,78.3,74.8,29.98,SSE,148,0.0,0.0,89,0.00,,,0.00,Wunderground v.1.15,2013-06-25 08:40:00,
2013-06-25 03:50:00,78.3,75.1,29.98,East,94,0.0,0.0,90,0.00,,,0.00,Wunderground v.1.15,2013-06-25 08:50:00,
2013-06-25 04:00:00,78.2,75.0,29.98,ESE,110,0.0,0.0,90,0.00,,,0.00,Wunderground v.1.15,2013-06-25 09:00:00,
2013-06-25 04:10:00,78.2,74.7,29.98,ESE,114,1.0,1.0,89,0.00,,,0.00,Wunderground v.1.15,2013-06-25 09:10:00,
2013-06-25 04:20:00,78.2,74.7,29.98,ESE,117,0.0,0.0,89,0.00,,,0.00,Wunderground v.1.15,2013-06-25 09:20:00,
2013-06-25 04:30:00,78.1,74.9,29.98,SE,131,0.0,0.0,90,0.00,,,0.00,Wunderground v.1.15,2013-06-25 09:30:00,
2013-06-25 04:40:00,77.9,74.7,29.97,SSE,160,0.0,0.0,90,0.00,,,0.00,Wunderground v.1.15,2013-06-25 09:40:00,
2013-06-25 04:50:00,77.7,74.9,29.97,SE,124,0.0,0.0,91,0.00,,,0.00,Wunderground v.1.15,2013-06-25 09:50:00,
2013-06-25 04:59:00,77.4,74.6,29.97,ESE,112,1.0,1.0,91,0.00,,,0.00,Wunderground v.1.15,2013-06-25 09:59:00,
2013-06-25 05:05:00,77.3,74.5,29.97,ESE,115,0.0,1.0,91,0.00,,,0.00,Wunderground v.1.15,2013-06-25 10:05:00,
2013-06-25 05:15:00,77.3,74.5,29.97,ESE,106,0.0,1.0,91,0.00,,,0.00,Wunderground v.1.15,2013-06-25 10:15:00,
2013-06-25 05:25:00,77.1,74.3,29.96,SSE,158,0.0,1.0,91,0.00,,,0.00,Wunderground v.1.15,2013-06-25 10:25:00,
2013-06-25 05:35:00,76.9,74.1,29.96,SE,146,0.0,1.0,91,0.00,,,0.00,Wunderground v.1.15,2013-06-25 10:35:00,
2013-06-25 05:45:00,76.8,74.0,29.96,ENE,67,1.0,1.0,91,0.00,,,0.00,Wunderground v.1.15,2013-06-25 10:45:00,
2013-06-25 05:55:00,76.7,73.5,29.96,ESE,112,1.0,1.0,90,0.00,,,0.00,Wunderground v.1.15,2013-06-25 10:55:00,
2013-06-25 06:05:00,76.7,73.9,29.96,NNW,327,0.0,1.0,91,0.00,,,0.00,Wunderground v.1.15,2013-06-25 11:05:00,
2013-06-25 06:15:00,76.6,73.4,29.96,SE,131,0.0,1.0,90,0.00,,,0.00,Wunderground v.1.15,2013-06-25 11:15:00,
2013-06-25 06:25:00,76.6,73.4,29.97,East,85,0.0,1.0,90,0.00,,,0.00,Wunderground v.1.15,2013-06-25 11:25:00,
2013-06-25 06:35:00,76.6,73.8,29.97,ESE,120,0.0,0.0,91,0.00,,,0.00,Wunderground v.1.15,2013-06-25 11:35:00,
2013-06-25 06:45:00,76.7,73.9,29.97,SE,132,0.0,0.0,91,0.00,,,0.00,Wunderground v.1.15,2013-06-25 11:45:00,
2013-06-25 06:55:00,76.8,73.6,29.97,ESE,111,0.0,2.0,90,0.00,,,0.00,Wunderground v.1.15,2013-06-25 11:55:00,
2013-06-25 07:05:00,76.9,74.1,29.97,ESE,104,0.0,0.0,91,0.00,,,0.00,Wunderground v.1.15,2013-06-25 12:05:00,
2013-06-25 07:15:00,77.0,74.2,29.97,ESE,111,0.0,0.0,91,0.00,,,0.00,Wunderground v.1.15,2013-06-25 12:15:00,
2013-06-25 07:24:00,77.1,74.3,29.97,SE,125,0.0,1.0,91,0.00,,,0.00,Wunderground v.1.15,2013-06-25 12:24:00,
2013-06-25 07:30:00,77.2,74.0,29.98,ESE,110,1.0,1.0,90,0.00,,,0.00,Wunderground v.1.15,2013-06-25 12:30:00,
2013-06-25 07:39:00,77.3,74.1,29.98,ENE,65,1.0,1.0,90,0.00,,,0.00,Wunderground v.1.15,2013-06-25 12:39:00,
2013-06-25 07:50:00,77.5,74.3,29.98,SE,138,0.0,0.0,90,0.00,,,0.00,Wunderground v.1.15,2013-06-25 12:50:00,
2013-06-25 08:00:00,77.7,74.2,29.98,ESE,105,1.0,1.0,89,0.00,,,0.00,Wunderground v.1.15,2013-06-25 13:00:00,
2013-06-25 08:10:00,78.0,74.5,29.99,ESE,113,1.0,1.0,89,0.00,,,0.00,Wunderground v.1.15,2013-06-25 13:10:00,
2013-06-25 08:20:00,78.3,74.1,29.99,ENE,74,1.0,1.0,87,0.00,,,0.00,Wunderground v.1.15,2013-06-25 13:20:00,
2013-06-25 08:30:00,78.7,74.2,29.99,South,186,1.0,1.0,86,0.00,,,0.00,Wunderground v.1.15,2013-06-25 13:30:00,
2013-06-25 08:40:00,78.9,74.0,29.99,East,96,1.0,1.0,85,0.00,,,0.00,Wunderground v.1.15,2013-06-25 13:40:00,
2013-06-25 08:50:00,79.4,74.5,30.00,WSW,245,1.0,1.0,85,0.00,,,0.00,Wunderground v.1.15,2013-06-25 13:50:00,
2013-06-25 09:00:00,79.5,73.9,30.00,SSW,212,1.0,3.0,83,0.00,,,0.00,Wunderground v.1.15,2013-06-25 14:00:00,
2013-06-25 09:10:00,79.7,73.7,29.99,South,190,1.0,1.0,82,0.00,,,0.00,Wunderground v.1.15,2013-06-25 14:10:00,
2013-06-25 09:20:00,80.2,73.8,29.99,NW,319,2.0,2.0,81,0.00,,,0.00,Wunderground v.1.15,2013-06-25 14:20:00,
2013-06-25 09:30:00,80.8,73.7,29.99,SSW,204,2.0,2.0,79,0.00,,,0.00,Wunderground v.1.15,2013-06-25 14:30:00,
2013-06-25 09:40:00,81.3,73.8,30.00,West,260,1.0,1.0,78,0.00,,,0.00,Wunderground v.1.15,2013-06-25 14:40:00,
2013-06-25 09:50:00,81.9,73.2,30.00,WNW,297,1.0,5.0,75,0.00,,,0.00,Wunderground v.1.15,2013-06-25 14:50:00,
2013-06-25 10:00:00,82.6,73.5,30.00,WNW,297,1.0,1.0,74,0.00,,,0.00,Wunderground v.1.15,2013-06-25 15:00:00,
2013-06-25 10:09:00,83.6,73.6,29.99,East,91,1.0,1.0,72,0.00,,,0.00,Wunderground v.1.15,2013-06-25 15:09:00,
2013-06-25 10:15:00,83.8,73.8,29.99,ESE,104,2.0,2.0,72,0.00,,,0.00,Wunderground v.1.15,2013-06-25 15:15:00,
2013-06-25 10:24:00,84.1,72.0,29.99,WSW,240,2.0,2.0,67,0.00,,,0.00,Wunderground v.1.15,2013-06-25 15:24:00,
2013-06-25 10:30:00,84.2,72.5,29.99,SW,229,3.0,4.0,68,0.00,,,0.00,Wunderground v.1.15,2013-06-25 15:30:00,
2013-06-25 10:40:00,84.7,72.1,29.99,SSW,208,2.0,2.0,66,0.00,,,0.00,Wunderground v.1.15,2013-06-25 15:40:00,
2013-06-25 10:50:00,85.3,72.2,29.99,SSE,158,2.0,2.0,65,0.00,,,0.00,Wunderground v.1.15,2013-06-25 15:50:00,
2013-06-25 11:00:00,85.6,71.1,29.98,WSW,245,2.0,2.0,62,0.00,,,0.00,Wunderground v.1.15,2013-06-25 16:00:00,
2013-06-25 11:10:00,85.7,71.7,29.98,SW,224,3.0,3.0,63,0.00,,,0.00,Wunderground v.1.15,2013-06-25 16:10:00,
2013-06-25 11:20:00,86.8,72.2,29.98,South,191,2.0,2.0,62,0.00,,,0.00,Wunderground v.1.15,2013-06-25 16:20:00,
2013-06-25 11:30:00,87.3,71.2,29.98,East,88,3.0,3.0,59,0.00,,,0.00,Wunderground v.1.15,2013-06-25 16:30:00,
2013-06-25 11:35:00,87.4,71.3,29.98,East,99,3.0,3.0,59,0.00,,,0.00,Wunderground v.1.15,2013-06-25 16:35:00,
2013-06-25 11:45:00,88.4,72.2,29.97,SSW,203,2.0,5.0,59,0.00,,,0.00,Wunderground v.1.15,2013-06-25 16:45:00,
2013-06-25 11:54:00,89.5,71.7,29.97,SE,135,2.0,2.0,56,0.00,,,0.00,Wunderground v.1.15,2013-06-25 16:54:00,
2013-06-25 12:00:00,89.9,73.1,29.97,ESE,112,2.0,2.0,58,0.00,,,0.00,Wunderground v.1.15,2013-06-25 17:00:00,
2013-06-25 12:09:00,90.3,71.9,29.97,SSW,212,2.0,3.0,55,0.00,,,0.00,Wunderground v.1.15,2013-06-25 17:09:00,
2013-06-25 12:15:00,90.9,70.8,29.97,WSW,242,2.0,4.0,52,0.00,,,0.00,Wunderground v.1.15,2013-06-25 17:15:00,
2013-06-25 12:25:00,91.3,71.2,29.96,SW,225,2.0,2.0,52,0.00,,,0.00,Wunderground v.1.15,2013-06-25 17:25:00,
2013-06-25 12:34:00,91.9,70.6,29.96,SE,139,3.0,3.0,50,0.00,,,0.00,Wunderground v.1.15,2013-06-25 17:34:00,
2013-06-25 12:40:00,92.0,70.7,29.96,WNW,283,3.0,3.0,50,0.00,,,0.00,Wunderground v.1.15,2013-06-25 17:40:00,
2013-06-25 12:50:00,92.5,70.6,29.95,ENE,76,2.0,7.0,49,0.00,,,0.00,Wunderground v.1.15,2013-06-25 17:50:00,
2013-06-25 12:55:00,92.7,73.1,29.95,ESE,120,3.0,7.0,53,0.00,,,0.00,Wunderground v.1.15,2013-06-25 17:55:00,
2013-06-25 13:05:00,93.2,71.2,29.95,WSW,256,2.0,3.0,49,0.00,,,0.00,Wunderground v.1.15,2013-06-25 18:05:00,
2013-06-25 13:14:00,93.8,72.3,29.95,East,83,2.0,6.0,50,0.00,,,0.00,Wunderground v.1.15,2013-06-25 18:14:00,
2013-06-25 13:20:00,93.7,71.0,29.95,WNW,283,2.0,4.0,48,0.00,,,0.00,Wunderground v.1.15,2013-06-25 18:20:00,
2013-06-25 13:30:00,94.4,71.1,29.94,SSW,212,2.0,2.0,47,0.00,,,0.00,Wunderground v.1.15,2013-06-25 18:30:00,
2013-06-25 13:39:00,94.8,70.8,29.94,East,84,3.0,3.0,46,0.00,,,0.00,Wunderground v.1.15,2013-06-25 18:39:00,
2013-06-25 13:45:00,94.7,70.7,29.93,SSW,200,2.0,3.0,46,0.00,,,0.00,Wunderground v.1.15,2013-06-25 18:45:00,
2013-06-25 13:55:00,95.5,69.4,29.93,South,174,2.0,3.0,43,0.00,,,0.00,Wunderground v.1.15,2013-06-25 18:55:00,
2013-06-25 14:05:00,96.4,70.3,29.93,East,94,2.0,3.0,43,0.00,,,0.00,Wunderground v.1.15,2013-06-25 19:05:00,
2013-06-25 14:15:00,96.3,72.2,29.92,East,82,2.0,4.0,46,0.00,,,0.00,Wunderground v.1.15,2013-06-25 19:15:00,
2013-06-25 14:24:00,96.5,72.3,29.92,SSW,204,2.0,2.0,46,0.00,,,0.00,Wunderground v.1.15,2013-06-25 19:24:00,
2013-06-25 14:30:00,96.6,69.7,29.92,SSW,200,2.0,3.0,42,0.00,,,0.00,Wunderground v.1.15,2013-06-25 19:30:00,
2013-06-25 14:39:00,96.9,70.0,29.92,SW,214,3.0,3.0,42,0.00,,,0.00,Wunderground v.1.15,2013-06-25 19:39:00,
2013-06-25 14:45:00,97.0,70.8,29.91,SSW,210,2.0,3.0,43,0.00,,,0.00,Wunderground v.1.15,2013-06-25 19:45:00,
2013-06-25 14:55:00,97.1,69.5,29.92,East,88,3.0,6.0,41,0.00,,,0.00,Wunderground v.1.15,2013-06-25 19:55:00,
2013-06-25 15:04:00,97.9,71.6,29.91,NE,47,1.0,3.0,43,0.00,,,0.00,Wunderground v.1.15,2013-06-25 20:04:00,
2013-06-25 15:10:00,98.4,70.6,29.91,SSW,201,2.0,2.0,41,0.00,,,0.00,Wunderground v.1.15,2013-06-25 20:10:00,
2013-06-25 15:20:00,98.5,71.4,29.91,SW,219,2.0,2.0,42,0.00,,,0.00,Wunderground v.1.15,2013-06-25 20:20:00,
2013-06-25 15:29:00,98.6,69.4,29.90,ESE,108,2.0,4.0,39,0.00,,,0.00,Wunderground v.1.15,2013-06-25 20:29:00,
2013-06-25 15:35:00,98.5,69.3,29.90,SSW,200,2.0,4.0,39,0.00,,,0.00,Wunderground v.1.15,2013-06-25 20:35:00,
2013-06-25 15:44:00,98.3,69.8,29.90,SSE,163,3.0,4.0,40,0.00,,,0.00,Wunderground v.1.15,2013-06-25 20:44:00,
2013-06-25 15:50:00,98.3,69.8,29.90,West,263,3.0,3.0,40,0.00,,,0.00,Wunderground v.1.15,2013-06-25 20:50:00,
2013-06-25 16:00:00,99.1,71.3,29.89,ESE,113,2.0,2.0,41,0.00,,,0.00,Wunderground v.1.15,2013-06-25 21:00:00,
2013-06-25 16:09:00,99.1,69.8,29.89,East,86,2.0,2.0,39,0.00,,,0.00,Wunderground v.1.15,2013-06-25 21:09:00,
2013-06-25 16:15:00,99.3,70.7,29.89,SW,222,2.0,2.0,40,0.00,,,0.00,Wunderground v.1.15,2013-06-25 21:15:00,
2013-06-25 16:25:00,99.3,69.2,29.88,West,259,2.0,2.0,38,0.00,,,0.00,Wunderground v.1.15,2013-06-25 21:25:00,
2013-06-25 16:35:00,99.4,69.3,29.89,SW,221,2.0,2.0,38,0.00,,,0.00,Wunderground v.1.15,2013-06-25 21:35:00,
2013-06-25 16:45:00,100.0,70.6,29.88,SW,215,1.0,2.0,39,0.00,,,0.00,Wunderground v.1.15,2013-06-25 21:45:00,
2013-06-25 16:55:00,99.8,69.7,29.88,SE,129,2.0,2.0,38,0.00,,,0.00,Wunderground v.1.15,2013-06-25 21:55:00,
2013-06-25 17:05:00,99.8,70.4,29.88,East,95,2.0,4.0,39,0.00,,,0.00,Wunderground v.1.15,2013-06-25 22:05:00,
2013-06-25 17:15:00,99.1,69.8,29.88,South,188,3.0,6.0,39,0.00,,,0.00,Wunderground v.1.15,2013-06-25 22:15:00,
2013-06-25 17:25:00,99.9,72.0,29.87,SE,135,1.0,2.0,41,0.00,,,0.00,Wunderground v.1.15,2013-06-25 22:25:00,
2013-06-25 17:35:00,99.6,71.0,29.87,WSW,249,2.0,2.0,40,0.00,,,0.00,Wunderground v.1.15,2013-06-25 22:35:00,
2013-06-25 17:45:00,97.6,72.7,29.87,ESE,117,3.0,3.0,45,0.00,,,0.00,Wunderground v.1.15,2013-06-25 22:45:00,
2013-06-25 17:54:00,96.8,73.2,29.86,ENE,71,2.0,2.0,47,0.00,,,0.00,Wunderground v.1.15,2013-06-25 22:54:00,
2013-06-25 18:00:00,96.0,72.5,29.86,East,89,2.0,4.0,47,0.00,,,0.00,Wunderground v.1.15,2013-06-25 23:00:00,
2013-06-25 18:09:00,95.5,72.7,29.86,East,96,2.0,3.0,48,0.00,,,0.00,Wunderground v.1.15,2013-06-25 23:09:00,
2013-06-25 18:15:00,95.7,73.5,29.86,North,7,2.0,3.0,49,0.00,,,0.00,Wunderground v.1.15,2013-06-25 23:15:00,
2013-06-25 18:25:00,95.1,72.9,29.85,East,101,2.0,3.0,49,0.00,,,0.00,Wunderground v.1.15,2013-06-25 23:25:00,
2013-06-25 18:34:00,95.0,72.8,29.86,SSE,156,2.0,3.0,49,0.00,,,0.00,Wunderground v.1.15,2013-06-25 23:34:00,
2013-06-25 18:40:00,95.0,73.4,29.86,SSE,150,2.0,3.0,50,0.00,,,0.00,Wunderground v.1.15,2013-06-25 23:40:00,
2013-06-25 18:50:00,94.5,72.4,29.85,ESE,115,2.0,3.0,49,0.00,,,0.00,Wunderground v.1.15,2013-06-25 23:50:00,
2013-06-25 18:59:00,94.0,73.7,29.85,ENE,65,2.0,2.0,52,0.00,,,0.00,Wunderground v.1.15,2013-06-25 23:59:00,
2013-06-25 19:05:00,93.8,72.9,29.86,East,98,2.0,2.0,51,0.00,,,0.00,Wunderground v.1.15,2013-06-26 00:05:00,
2013-06-25 19:14:00,93.0,72.8,29.85,SE,131,2.0,3.0,52,0.00,,,0.00,Wunderground v.1.15,2013-06-26 00:14:00,
2013-06-25 19:20:00,92.9,72.7,29.86,ESE,114,2.0,3.0,52,0.00,,,0.00,Wunderground v.1.15,2013-06-26 00:20:00,
2013-06-25 19:30:00,92.7,73.1,29.86,SSE,148,2.0,2.0,53,0.00,,,0.00,Wunderground v.1.15,2013-06-26 00:30:00,
2013-06-25 19:39:00,92.3,72.7,29.86,East,95,2.0,2.0,53,0.00,,,0.00,Wunderground v.1.15,2013-06-26 00:39:00,
2013-06-25 19:45:00,91.9,72.9,29.86,East,91,2.0,2.0,54,0.00,,,0.00,Wunderground v.1.15,2013-06-26 00:45:00,
2013-06-25 19:54:00,91.0,73.1,29.86,East,80,2.0,3.0,56,0.00,,,0.00,Wunderground v.1.15,2013-06-26 00:54:00,
2013-06-25 20:00:00,90.6,72.8,29.86,East,91,2.0,2.0,56,0.00,,,0.00,Wunderground v.1.15,2013-06-26 01:00:00,
2013-06-25 20:10:00,90.0,73.2,29.86,ESE,114,2.0,2.0,58,0.00,,,0.00,Wunderground v.1.15,2013-06-26 01:10:00,
2013-06-25 20:19:00,89.4,73.2,29.87,South,169,1.0,1.0,59,0.00,,,0.00,Wunderground v.1.15,2013-06-26 01:19:00,
2013-06-25 20:25:00,89.0,72.8,29.87,SE,143,1.0,1.0,59,0.00,,,0.00,Wunderground v.1.15,2013-06-26 01:25:00,
2013-06-25 20:35:00,88.4,72.7,29.87,ESE,111,1.0,1.0,60,0.00,,,0.00,Wunderground v.1.15,2013-06-26 01:35:00,
2013-06-25 20:45:00,87.8,72.7,29.87,ESE,107,2.0,2.0,61,0.00,,,0.00,Wunderground v.1.15,2013-06-26 01:45:00,
2013-06-25 20:54:00,87.2,72.6,29.88,ESE,120,2.0,2.0,62,0.00,,,0.00,Wunderground v.1.15,2013-06-26 01:54:00,
2013-06-25 21:00:00,86.9,72.8,29.88,ESE,111,1.0,1.0,63,0.00,,,0.00,Wunderground v.1.15,2013-06-26 02:00:00,
2013-06-25 21:10:00,86.4,72.8,29.89,NW,319,1.0,1.0,64,0.00,,,0.00,Wunderground v.1.15,2013-06-26 02:10:00,
2013-06-25 21:19:00,86.0,72.9,29.89,SE,138,1.0,1.0,65,0.00,,,0.00,Wunderground v.1.15,2013-06-26 02:19:00,
2013-06-25 21:25:00,85.7,73.0,29.89,ENE,76,1.0,2.0,66,0.00,,,0.00,Wunderground v.1.15,2013-06-26 02:25:00,
2013-06-25 21:35:00,85.3,73.1,29.89,ESE,116,1.0,2.0,67,0.00,,,0.00,Wunderground v.1.15,2013-06-26 02:35:00,
2013-06-25 21:45:00,84.8,73.1,29.89,SE,141,1.0,4.0,68,0.00,,,0.00,Wunderground v.1.15,2013-06-26 02:45:00,
2013-06-25 21:55:00,84.4,73.5,29.89,ESE,103,2.0,3.0,70,0.00,,,0.00,Wunderground v.1.15,2013-06-26 02:55:00,
2013-06-25 22:04:00,83.9,73.5,29.89,WNW,295,2.0,2.0,71,0.00,,,0.00,Wunderground v.1.15,2013-06-26 03:04:00,
2013-06-25 22:10:00,83.7,73.3,29.89,ESE,117,1.0,2.0,71,0.00,,,0.00,Wunderground v.1.15,2013-06-26 03:10:00,
2013-06-25 22:20:00,83.3,72.9,29.90,East,93,2.0,2.0,71,0.00,,,0.00,Wunderground v.1.15,2013-06-26 03:20:00,
2013-06-25 22:30:00,82.8,72.4,29.90,SE,132,2.0,2.0,71,0.00,,,0.00,Wunderground v.1.15,2013-06-26 03:30:00,
2013-06-25 22:40:00,82.3,72.4,29.91,East,79,2.0,2.0,72,0.00,,,0.00,Wunderground v.1.15,2013-06-26 03:40:00,
2013-06-25 22:50:00,81.9,72.0,29.91,SE,127,2.0,4.0,72,0.00,,,0.00,Wunderground v.1.15,2013-06-26 03:50:00,
2013-06-25 23:00:00,81.6,72.1,29.92,NE,53,2.0,2.0,73,0.00,,,0.00,Wunderground v.1.15,2013-06-26 04:00:00,
2013-06-25 23:04:00,81.4,71.9,29.92,ESE,110,1.0,2.0,73,0.00,,,0.00,Wunderground v.1.15,2013-06-26 04:04:00,
2013-06-25 23:10:00,81.2,72.1,29.92,East,92,1.0,1.0,74,0.00,,,0.00,Wunderground v.1.15,2013-06-26 04:10:00,
2013-06-25 23:15:00,80.9,71.8,29.92,SE,134,0.0,1.0,74,0.00,,,0.00,Wunderground v.1.15,2013-06-26 04:15:00,
2013-06-25 23:20:00,80.7,72.0,29.93,North,5,0.0,0.0,75,0.00,,,0.00,Wunderground v.1.15,2013-06-26 04:20:00,
2013-06-25 23:30:00,80.3,72.0,29.93,ESE,103,1.0,1.0,76,0.00,,,0.00,Wunderground v.1.15,2013-06-26 04:30:00,
2013-06-25 23:40:00,80.1,72.2,29.94,ESE,112,1.0,1.0,77,0.00,,,0.00,Wunderground v.1.15,2013-06-26 04:40:00,
2013-06-25 23:50:00,79.8,72.3,29.94,SSE,160,1.0,1.0,78,0.00,,,0.00,Wunderground v.1.15,2013-06-26 04:50:00,
2013-06-25 23:55:00,79.6,72.5,29.94,ESE,113,1.0,1.0,79,0.00,,,0.00,Wunderground v.1.15,2013-06-26 04:55:00,